Time,TemperatureF,DewpointF,PressureIn,WindDirection,WindDirectionDegrees,WindSpeedMPH,WindSpeedGustMPH,Humidity,HourlyPrecipIn,Conditions,Clouds,dailyrainin,SoftwareType,DateUTC
2013-04-20 00:01:00,31.8,30.0,29.75,West,260,9.0,28.0,93,0.00,,---,0.89,VWS V14.01,2013-04-20 04:01:00,
2013-04-20 00:02:00,31.8,30.0,29.75,West,270,6.0,28.0,93,0.00,,---,0.00,VWS V14.01,2013-04-20 04:02:00,
2013-04-20 00:07:00,31.8,30.0,29.75,West,277,8.0,20.0,93,0.00,,---,0.00,VWS V14.01,2013-04-20 04:07:00,
2013-04-20 00:12:00,31.8,30.0,29.75,West,259,8.0,20.0,93,0.00,,---,0.00,VWS V14.01,2013-04-20 04:12:00,
2013-04-20 00:17:00,31.9,29.8,29.75,WSW,257,6.0,20.0,92,0.00,,---,0.00,VWS V14.01,2013-04-20 04:17:00,
2013-04-20 00:22:00,32.1,29.8,29.75,West,260,7.0,20.0,91,0.00,,---,0.00,VWS V14.01,2013-04-20 04:22:00,
2013-04-20 00:27:00,32.3,29.7,29.75,WSW,257,11.0,20.0,90,0.00,,---,0.00,VWS V14.01,2013-04-20 04:27:00,
2013-04-20 00:33:00,32.4,29.5,29.76,SW,235,14.0,20.0,89,0.00,,---,0.00,VWS V14.01,2013-04-20 04:33:00,
2013-04-20 00:38:00,32.5,29.6,29.76,WSW,255,8.0,20.0,89,0.00,,---,0.00,VWS V14.01,2013-04-20 04:38:00,
2013-04-20 00:43:00,32.5,29.4,29.76,West,267,4.0,20.0,88,0.00,,---,0.00,VWS V14.01,2013-04-20 04:43:00,
2013-04-20 00:48:00,32.5,29.4,29.76,West,280,6.0,20.0,88,0.00,,---,0.00,VWS V14.01,2013-04-20 04:48:00,
2013-04-20 00:53:00,32.6,29.5,29.76,West,259,10.0,20.0,88,0.00,,---,0.00,VWS V14.01,2013-04-20 04:53:00,
2013-04-20 00:58:00,32.6,29.2,29.77,WSW,252,9.0,20.0,87,0.00,,---,0.00,VWS V14.01,2013-04-20 04:58:00,
2013-04-20 01:03:00,32.6,29.2,29.77,SW,224,10.0,11.0,87,0.00,,---,0.00,VWS V14.01,2013-04-20 05:03:00,
2013-04-20 01:08:00,32.7,29.0,29.77,WSW,256,13.0,13.0,86,0.00,,---,0.00,VWS V14.01,2013-04-20 05:08:00,
2013-04-20 01:13:00,32.7,29.0,29.77,WSW,249,4.0,15.0,86,0.00,,---,0.00,VWS V14.01,2013-04-20 05:13:00,
2013-04-20 01:18:00,32.7,28.7,29.78,SW,231,4.0,15.0,85,0.00,,---,0.00,VWS V14.01,2013-04-20 05:18:00,
2013-04-20 01:23:00,32.7,29.0,29.78,WSW,256,10.0,15.0,86,0.00,,---,0.00,VWS V14.01,2013-04-20 05:23:00,
2013-04-20 01:28:00,32.8,28.8,29.78,West,263,7.0,15.0,85,0.00,,---,0.00,VWS V14.01,2013-04-20 05:28:00,
2013-04-20 01:33:00,32.8,28.8,29.78,SW,233,11.0,15.0,85,0.00,,---,0.00,VWS V14.01,2013-04-20 05:33:00,
2013-04-20 01:38:00,32.9,28.9,29.78,SW,236,10.0,15.0,85,0.00,,---,0.00,VWS V14.01,2013-04-20 05:38:00,
2013-04-20 01:44:00,32.9,28.9,29.78,WSW,252,9.0,15.0,85,0.00,,---,0.00,VWS V14.01,2013-04-20 05:44:00,
2013-04-20 01:49:00,32.9,29.2,29.79,West,278,12.0,15.0,86,0.00,,---,0.00,VWS V14.01,2013-04-20 05:49:00,
2013-04-20 01:54:00,32.9,29.2,29.79,West,264,7.0,15.0,86,0.00,,---,0.00,VWS V14.01,2013-04-20 05:54:00,
2013-04-20 01:59:00,33.0,29.0,29.79,WSW,243,12.0,19.0,85,0.00,,---,0.00,VWS V14.01,2013-04-20 05:59:00,
2013-04-20 02:04:00,33.0,29.3,29.79,West,267,10.0,15.0,86,0.00,,---,0.00,VWS V14.01,2013-04-20 06:04:00,
2013-04-20 02:09:00,33.0,29.3,29.80,SW,236,12.0,15.0,86,0.00,,---,0.00,VWS V14.01,2013-04-20 06:09:00,
2013-04-20 02:14:00,33.1,29.1,29.80,WSW,245,12.0,15.0,85,0.00,,---,0.00,VWS V14.01,2013-04-20 06:14:00,
2013-04-20 02:19:00,33.1,28.8,29.80,West,262,11.0,16.0,84,0.00,,---,0.00,VWS V14.01,2013-04-20 06:19:00,
2013-04-20 02:24:00,33.1,28.8,29.80,WSW,257,10.0,16.0,84,0.00,,---,0.00,VWS V14.01,2013-04-20 06:24:00,
2013-04-20 02:29:00,33.1,28.5,29.80,SW,231,7.0,16.0,83,0.00,,---,0.00,VWS V14.01,2013-04-20 06:29:00,
2013-04-20 02:34:00,33.2,28.6,29.80,West,278,9.0,19.0,83,0.00,,---,0.00,VWS V14.01,2013-04-20 06:34:00,
2013-04-20 02:39:00,33.1,28.5,29.80,West,276,11.0,19.0,83,0.00,,---,0.00,VWS V14.01,2013-04-20 06:39:00,
2013-04-20 02:45:00,33.2,28.3,29.80,WSW,257,8.0,19.0,82,0.00,,---,0.00,VWS V14.01,2013-04-20 06:45:00,
2013-04-20 02:50:00,33.2,28.3,29.80,West,263,8.0,19.0,82,0.00,,---,0.00,VWS V14.01,2013-04-20 06:50:00,
2013-04-20 02:55:00,33.2,28.3,29.80,West,260,7.0,19.0,82,0.00,,---,0.00,VWS V14.01,2013-04-20 06:55:00,
2013-04-20 03:00:00,33.2,28.3,29.81,WSW,255,11.0,19.0,82,0.00,,---,0.00,VWS V14.01,2013-04-20 07:00:00,
2013-04-20 03:05:00,33.2,28.3,29.81,West,260,8.0,15.0,82,0.00,,---,0.00,VWS V14.01,2013-04-20 07:05:00,
2013-04-20 03:10:00,33.2,28.0,29.81,SW,236,12.0,18.0,81,0.00,,---,0.00,VWS V14.01,2013-04-20 07:10:00,
2013-04-20 03:15:00,33.2,28.0,29.81,West,259,16.0,18.0,81,0.00,,---,0.00,VWS V14.01,2013-04-20 07:15:00,
2013-04-20 03:20:00,33.1,27.6,29.82,WSW,246,6.0,18.0,80,0.00,,---,0.00,VWS V14.01,2013-04-20 07:20:00,
2013-04-20 03:25:00,33.0,26.6,29.82,West,281,11.0,23.0,77,0.00,,---,0.00,VWS V14.01,2013-04-20 07:25:00,
2013-04-20 03:30:00,33.0,26.3,29.83,West,274,4.0,23.0,76,0.00,,---,0.00,VWS V14.01,2013-04-20 07:30:00,
2013-04-20 03:36:00,32.9,25.9,29.83,West,280,10.0,23.0,75,0.00,,---,0.00,VWS V14.01,2013-04-20 07:36:00,
2013-04-20 03:41:00,32.7,26.3,29.83,West,266,6.0,23.0,77,0.00,,---,0.00,VWS V14.01,2013-04-20 07:41:00,
2013-04-20 03:46:00,32.6,26.2,29.84,West,280,10.0,23.0,77,0.00,,---,0.00,VWS V14.01,2013-04-20 07:46:00,
2013-04-20 03:51:00,32.5,26.1,29.84,WSW,243,9.0,23.0,77,0.00,,---,0.00,VWS V14.01,2013-04-20 07:51:00,
2013-04-20 03:56:00,32.5,26.1,29.84,West,280,6.0,23.0,77,0.00,,---,0.00,VWS V14.01,2013-04-20 07:56:00,
2013-04-20 04:01:00,32.4,26.3,29.85,WNW,290,9.0,23.0,78,0.00,,---,0.00,VWS V14.01,2013-04-20 08:01:00,
2013-04-20 04:06:00,32.3,25.6,29.85,WNW,283,5.0,14.0,76,0.00,,---,0.00,VWS V14.01,2013-04-20 08:06:00,
2013-04-20 04:11:00,32.1,24.8,29.86,NW,314,12.0,18.0,74,0.00,,---,0.00,VWS V14.01,2013-04-20 08:11:00,
2013-04-20 04:16:00,32.1,24.8,29.86,WNW,286,10.0,20.0,74,0.00,,---,0.00,VWS V14.01,2013-04-20 08:16:00,
2013-04-20 04:21:00,32.0,24.7,29.86,West,278,9.0,20.0,74,0.00,,---,0.00,VWS V14.01,2013-04-20 08:21:00,
2013-04-20 04:26:00,31.8,24.1,29.86,WSW,258,14.0,20.0,73,0.00,,---,0.00,VWS V14.01,2013-04-20 08:26:00,
2013-04-20 04:31:00,31.8,24.1,29.87,West,266,7.0,20.0,73,0.00,,---,0.00,VWS V14.01,2013-04-20 08:31:00,
2013-04-20 04:36:00,31.7,24.0,29.87,NW,323,13.0,20.0,73,0.00,,---,0.00,VWS V14.01,2013-04-20 08:36:00,
2013-04-20 04:42:00,31.7,24.0,29.87,WNW,285,10.0,20.0,73,0.00,,---,0.00,VWS V14.01,2013-04-20 08:42:00,
2013-04-20 04:47:00,31.6,24.0,29.88,NNW,342,5.0,20.0,73,0.00,,---,0.00,VWS V14.01,2013-04-20 08:47:00,
2013-04-20 04:52:00,31.5,23.9,29.88,WNW,292,9.0,20.0,73,0.00,,---,0.00,VWS V14.01,2013-04-20 08:52:00,
2013-04-20 04:57:00,31.4,23.8,29.88,NW,310,6.0,20.0,73,0.00,,---,0.00,VWS V14.01,2013-04-20 08:57:00,
2013-04-20 05:02:00,31.3,23.0,29.89,WNW,302,8.0,9.0,71,0.00,,---,0.00,VWS V14.01,2013-04-20 09:02:00,
2013-04-20 05:07:00,31.2,23.2,29.89,West,270,9.0,12.0,72,0.00,,---,0.00,VWS V14.01,2013-04-20 09:07:00,
2013-04-20 05:12:00,31.2,22.9,29.89,WSW,253,9.0,16.0,71,0.00,,---,0.00,VWS V14.01,2013-04-20 09:12:00,
2013-04-20 05:17:00,31.0,22.7,29.89,WNW,290,10.0,16.0,71,0.00,,---,0.00,VWS V14.01,2013-04-20 09:17:00,
2013-04-20 05:22:00,30.9,22.6,29.90,WNW,285,9.0,16.0,71,0.00,,---,0.00,VWS V14.01,2013-04-20 09:22:00,
2013-04-20 05:27:00,30.9,22.3,29.90,WNW,293,6.0,19.0,70,0.00,,---,0.00,VWS V14.01,2013-04-20 09:27:00,
2013-04-20 05:32:00,30.8,22.2,29.90,West,267,8.0,19.0,70,0.00,,---,0.00,VWS V14.01,2013-04-20 09:32:00,
2013-04-20 05:37:00,30.8,21.9,29.91,West,272,3.0,19.0,69,0.00,,---,0.00,VWS V14.01,2013-04-20 09:37:00,
2013-04-20 05:43:00,30.8,21.5,29.91,West,277,8.0,19.0,68,0.00,,---,0.00,VWS V14.01,2013-04-20 09:43:00,
2013-04-20 05:48:00,30.6,21.3,29.91,West,274,11.0,19.0,68,0.00,,---,0.00,VWS V14.01,2013-04-20 09:48:00,
2013-04-20 05:53:00,30.5,20.9,29.92,West,278,7.0,19.0,67,0.00,,---,0.00,VWS V14.01,2013-04-20 09:53:00,
2013-04-20 05:58:00,30.3,20.7,29.92,NW,304,7.0,19.0,67,0.00,,---,0.00,VWS V14.01,2013-04-20 09:58:00,
2013-04-20 06:03:00,30.1,20.8,29.92,WNW,300,6.0,9.0,68,0.00,,---,0.00,VWS V14.01,2013-04-20 10:03:00,
2013-04-20 06:08:00,29.9,20.6,29.93,West,270,4.0,14.0,68,0.00,,---,0.00,VWS V14.01,2013-04-20 10:08:00,
2013-04-20 06:13:00,29.7,20.8,29.93,NW,309,8.0,14.0,69,0.00,,---,0.00,VWS V14.01,2013-04-20 10:13:00,
2013-04-20 06:18:00,29.6,20.0,29.94,WNW,293,13.0,17.0,67,0.00,,---,0.00,VWS V14.01,2013-04-20 10:18:00,
2013-04-20 06:23:00,29.6,19.6,29.94,WNW,284,11.0,18.0,66,0.00,,---,0.00,VWS V14.01,2013-04-20 10:23:00,
2013-04-20 06:28:00,29.5,19.6,29.94,WNW,290,8.0,18.0,66,0.00,,---,0.00,VWS V14.01,2013-04-20 10:28:00,
2013-04-20 06:33:00,29.4,18.7,29.95,NW,305,7.0,18.0,64,0.00,,---,0.00,VWS V14.01,2013-04-20 10:33:00,
2013-04-20 06:38:00,29.4,18.7,29.95,NNW,333,12.0,18.0,64,0.00,,---,0.00,VWS V14.01,2013-04-20 10:38:00,
2013-04-20 06:43:00,29.2,17.8,29.96,WNW,291,9.0,25.0,62,0.00,,---,0.00,VWS V14.01,2013-04-20 10:43:00,
2013-04-20 06:48:00,29.0,17.6,29.96,NW,311,6.0,25.0,62,0.00,,---,0.00,VWS V14.01,2013-04-20 10:48:00,
2013-04-20 06:54:00,29.2,17.4,29.97,WNW,293,12.0,25.0,61,0.00,,---,0.00,VWS V14.01,2013-04-20 10:54:00,
2013-04-20 06:59:00,29.2,17.4,29.97,WNW,293,12.0,25.0,61,0.00,,---,0.00,VWS V14.01,2013-04-20 10:59:00,
2013-04-20 07:04:00,29.2,17.4,29.98,WNW,293,12.0,12.0,61,0.00,,---,0.00,VWS V14.01,2013-04-20 11:04:00,
2013-04-20 07:09:00,29.2,17.4,29.98,WNW,293,12.0,12.0,61,0.00,,---,0.00,VWS V14.01,2013-04-20 11:09:00,
2013-04-20 07:14:00,29.2,17.4,29.99,WNW,293,12.0,12.0,61,0.00,,---,0.00,VWS V14.01,2013-04-20 11:14:00,
2013-04-20 07:19:00,29.2,17.4,29.99,WNW,293,12.0,12.0,61,0.00,,---,0.00,VWS V14.01,2013-04-20 11:19:00,
2013-04-20 07:24:00,29.2,17.4,29.99,WNW,293,12.0,12.0,61,0.00,,---,0.00,VWS V14.01,2013-04-20 11:24:00,
2013-04-20 07:29:00,29.2,17.4,29.99,WNW,293,12.0,12.0,61,0.00,,---,0.00,VWS V14.01,2013-04-20 11:29:00,
2013-04-20 07:34:00,29.2,17.4,29.99,WNW,293,12.0,12.0,61,0.00,,---,0.00,VWS V14.01,2013-04-20 11:34:00,
2013-04-20 07:39:00,29.2,17.4,30.00,WNW,293,12.0,12.0,61,0.00,,---,0.00,VWS V14.01,2013-04-20 11:39:00,
2013-04-20 07:44:00,29.2,17.4,30.00,WNW,290,6.0,12.0,61,0.00,,---,0.00,VWS V14.01,2013-04-20 11:44:00,
2013-04-20 07:49:00,28.2,16.5,30.01,West,276,9.0,19.0,61,0.00,,---,0.00,VWS V14.01,2013-04-20 11:49:00,
2013-04-20 07:54:00,28.2,16.9,30.01,WNW,285,5.0,19.0,62,0.00,,---,0.00,VWS V14.01,2013-04-20 11:54:00,
2013-04-20 07:59:00,28.2,16.9,30.01,NNW,339,9.0,20.0,62,0.00,,---,0.00,VWS V14.01,2013-04-20 11:59:00,
2013-04-20 08:05:00,28.2,17.2,30.02,WNW,297,8.0,18.0,63,0.00,,---,0.00,VWS V14.01,2013-04-20 12:05:00,
2013-04-20 08:10:00,28.2,16.9,30.02,NW,307,9.0,18.0,62,0.00,,---,0.00,VWS V14.01,2013-04-20 12:10:00,
2013-04-20 08:15:00,28.1,17.1,30.03,WNW,290,7.0,18.0,63,0.00,,---,0.00,VWS V14.01,2013-04-20 12:15:00,
2013-04-20 08:20:00,28.1,16.8,30.03,West,273,5.0,18.0,62,0.00,,---,0.00,VWS V14.01,2013-04-20 12:20:00,
2013-04-20 08:25:00,28.3,17.0,30.03,WNW,294,3.0,18.0,62,0.00,,---,0.00,VWS V14.01,2013-04-20 12:25:00,
2013-04-20 08:30:00,28.6,16.9,30.04,NW,320,4.0,18.0,61,0.00,,---,0.00,VWS V14.01,2013-04-20 12:30:00,
2013-04-20 08:35:00,28.7,16.6,30.04,West,281,7.0,19.0,60,0.00,,---,0.00,VWS V14.01,2013-04-20 12:35:00,
2013-04-20 08:40:00,29.0,16.9,30.05,WNW,300,10.0,19.0,60,0.00,,---,0.00,VWS V14.01,2013-04-20 12:40:00,
2013-04-20 08:45:00,29.2,17.4,30.05,West,266,13.0,21.0,61,0.00,,---,0.00,VWS V14.01,2013-04-20 12:45:00,
2013-04-20 08:50:00,29.2,17.1,30.05,NW,308,10.0,21.0,60,0.00,,---,0.00,VWS V14.01,2013-04-20 12:50:00,
2013-04-20 08:55:00,29.2,16.7,30.05,WNW,297,8.0,21.0,59,0.00,,---,0.00,VWS V14.01,2013-04-20 12:55:00,
2013-04-20 09:00:00,28.7,16.2,30.06,WNW,300,10.0,21.0,59,0.00,,---,0.00,VWS V14.01,2013-04-20 13:00:00,
2013-04-20 09:06:00,28.8,16.7,30.06,NW,315,13.0,18.0,60,0.00,,---,0.00,VWS V14.01,2013-04-20 13:06:00,
2013-04-20 09:11:00,29.0,16.9,30.07,West,281,7.0,18.0,60,0.00,,---,0.00,VWS V14.01,2013-04-20 13:11:00,
2013-04-20 09:16:00,29.2,17.4,30.07,West,262,13.0,18.0,61,0.00,,---,0.00,VWS V14.01,2013-04-20 13:16:00,
2013-04-20 09:21:00,29.2,17.1,30.07,WNW,290,14.0,18.0,60,0.00,,---,0.00,VWS V14.01,2013-04-20 13:21:00,
2013-04-20 09:26:00,29.2,17.1,30.07,West,280,9.0,21.0,60,0.00,,---,0.00,VWS V14.01,2013-04-20 13:26:00,
2013-04-20 09:31:00,29.5,17.7,30.08,NNW,332,12.0,21.0,61,0.00,,---,0.00,VWS V14.01,2013-04-20 13:31:00,
2013-04-20 09:36:00,29.6,17.8,30.08,NW,311,5.0,21.0,61,0.00,,---,0.00,VWS V14.01,2013-04-20 13:36:00,
2013-04-20 09:41:00,30.0,17.8,30.08,WSW,254,9.0,21.0,60,0.00,,---,0.00,VWS V14.01,2013-04-20 13:41:00,
2013-04-20 09:46:00,30.0,17.8,30.09,NW,304,8.0,22.0,60,0.00,,---,0.00,VWS V14.01,2013-04-20 13:46:00,
2013-04-20 09:51:00,30.1,18.7,30.09,NW,310,6.0,22.0,62,0.00,,---,0.00,VWS V14.01,2013-04-20 13:51:00,
2013-04-20 09:56:00,30.2,18.4,30.09,NNW,328,11.0,22.0,61,0.00,,---,0.00,VWS V14.01,2013-04-20 13:56:00,
2013-04-20 10:01:00,30.4,19.0,30.09,NNW,333,10.0,22.0,62,0.00,,---,0.00,VWS V14.01,2013-04-20 14:01:00,
2013-04-20 10:07:00,30.5,19.0,30.10,WNW,300,7.0,15.0,62,0.00,,---,0.00,VWS V14.01,2013-04-20 14:07:00,
2013-04-20 10:12:00,30.5,18.7,30.10,West,260,17.0,17.0,61,0.00,,---,0.00,VWS V14.01,2013-04-20 14:12:00,
2013-04-20 10:17:00,30.1,18.3,30.11,West,276,5.0,20.0,61,0.00,,---,0.00,VWS V14.01,2013-04-20 14:17:00,
2013-04-20 10:22:00,31.0,20.3,30.10,WSW,253,7.0,22.0,64,0.00,,---,0.00,VWS V14.01,2013-04-20 14:22:00,
2013-04-20 10:27:00,31.0,18.8,30.11,WNW,297,9.0,22.0,60,0.00,,---,0.00,VWS V14.01,2013-04-20 14:27:00,
2013-04-20 10:32:00,31.5,20.4,30.11,NNW,328,12.0,22.0,63,0.00,,---,0.00,VWS V14.01,2013-04-20 14:32:00,
2013-04-20 10:37:00,31.4,19.9,30.11,NW,307,9.0,22.0,62,0.00,,---,0.00,VWS V14.01,2013-04-20 14:37:00,
2013-04-20 10:42:00,31.5,19.6,30.11,WNW,295,7.0,22.0,61,0.00,,---,0.00,VWS V14.01,2013-04-20 14:42:00,
2013-04-20 10:47:00,31.7,20.2,30.12,WNW,296,6.0,22.0,62,0.00,,---,0.00,VWS V14.01,2013-04-20 14:47:00,
2013-04-20 10:53:00,32.2,20.7,30.12,NW,318,11.0,22.0,62,0.00,,---,0.00,VWS V14.01,2013-04-20 14:53:00,
2013-04-20 10:58:00,32.3,20.4,30.13,NNW,328,12.0,22.0,61,0.00,,---,0.00,VWS V14.01,2013-04-20 14:58:00,
2013-04-20 11:03:00,32.1,20.9,30.13,WSW,256,11.0,13.0,63,0.00,,---,0.00,VWS V14.01,2013-04-20 15:03:00,
2013-04-20 11:08:00,31.8,20.7,30.13,WSW,255,15.0,17.0,63,0.00,,---,0.00,VWS V14.01,2013-04-20 15:08:00,
2013-04-20 11:13:00,31.9,21.5,30.14,West,270,15.0,19.0,65,0.00,,---,0.00,VWS V14.01,2013-04-20 15:13:00,
2013-04-20 11:18:00,32.4,21.2,30.14,WNW,294,5.0,19.0,63,0.00,,---,0.00,VWS V14.01,2013-04-20 15:18:00,
2013-04-20 11:23:00,32.5,21.3,30.14,NW,321,11.0,20.0,63,0.00,,---,0.00,VWS V14.01,2013-04-20 15:23:00,
2013-04-20 11:28:00,32.2,20.3,30.14,West,278,14.0,20.0,61,0.00,,---,0.00,VWS V14.01,2013-04-20 15:28:00,
2013-04-20 11:33:00,32.4,20.5,30.15,NNW,330,5.0,20.0,61,0.00,,---,0.00,VWS V14.01,2013-04-20 15:33:00,
2013-04-20 11:38:00,32.7,21.5,30.15,NW,307,11.0,20.0,63,0.00,,---,0.00,VWS V14.01,2013-04-20 15:38:00,
2013-04-20 11:43:00,32.2,21.0,30.15,West,266,9.0,21.0,63,0.00,,---,0.00,VWS V14.01,2013-04-20 15:43:00,
2013-04-20 11:48:00,32.5,21.3,30.16,West,277,6.0,21.0,63,0.00,,---,0.00,VWS V14.01,2013-04-20 15:48:00,
2013-04-20 11:53:00,32.5,21.3,30.16,NNW,331,11.0,21.0,63,0.00,,---,0.00,VWS V14.01,2013-04-20 15:53:00,
2013-04-20 11:58:00,32.3,21.5,30.16,WNW,297,7.0,21.0,64,0.00,,---,0.00,VWS V14.01,2013-04-20 15:58:00,
2013-04-20 12:04:00,32.3,20.8,30.17,WNW,291,11.0,16.0,62,0.00,,---,0.00,VWS V14.01,2013-04-20 16:04:00,
2013-04-20 12:09:00,32.8,20.9,30.17,West,263,7.0,16.0,61,0.00,,---,0.00,VWS V14.01,2013-04-20 16:09:00,
2013-04-20 12:14:00,33.2,20.8,30.17,NW,316,9.0,16.0,60,0.00,,---,0.00,VWS V14.01,2013-04-20 16:14:00,
2013-04-20 12:19:00,33.2,20.8,30.18,WNW,300,7.0,16.0,60,0.00,,---,0.00,VWS V14.01,2013-04-20 16:19:00,
2013-04-20 12:24:00,33.4,21.4,30.18,West,280,7.0,16.0,61,0.00,,---,0.00,VWS V14.01,2013-04-20 16:24:00,
2013-04-20 12:29:00,33.7,20.5,30.18,WNW,300,8.0,16.0,58,0.00,,---,0.00,VWS V14.01,2013-04-20 16:29:00,
2013-04-20 12:34:00,33.7,21.3,30.18,West,259,5.0,16.0,60,0.00,,---,0.00,VWS V14.01,2013-04-20 16:34:00,
2013-04-20 12:39:00,34.1,20.1,30.18,WNW,295,6.0,16.0,56,0.00,,---,0.00,VWS V14.01,2013-04-20 16:39:00,
2013-04-20 12:44:00,33.9,20.3,30.18,West,269,9.0,17.0,57,0.00,,---,0.00,VWS V14.01,2013-04-20 16:44:00,
2013-04-20 12:49:00,33.7,19.7,30.19,WSW,256,7.0,17.0,56,0.00,,---,0.00,VWS V14.01,2013-04-20 16:49:00,
2013-04-20 12:54:00,33.7,20.1,30.18,NNW,342,11.0,17.0,57,0.00,,---,0.00,VWS V14.01,2013-04-20 16:54:00,
2013-04-20 12:59:00,34.2,20.6,30.19,WSW,256,16.0,17.0,57,0.00,,---,0.00,VWS V14.01,2013-04-20 16:59:00,
2013-04-20 13:04:00,34.2,19.3,30.19,WNW,288,7.0,12.0,54,0.00,,---,0.00,VWS V14.01,2013-04-20 17:04:00,
2013-04-20 13:10:00,34.1,20.5,30.19,WNW,288,8.0,13.0,57,0.00,,---,0.00,VWS V14.01,2013-04-20 17:10:00,
2013-04-20 13:15:00,34.5,20.9,30.19,WNW,296,11.0,20.0,57,0.00,,---,0.00,VWS V14.01,2013-04-20 17:15:00,
2013-04-20 13:20:00,34.5,20.9,30.20,WNW,295,10.0,20.0,57,0.00,,---,0.00,VWS V14.01,2013-04-20 17:20:00,
2013-04-20 13:25:00,34.1,20.5,30.20,West,280,9.0,20.0,57,0.00,,---,0.00,VWS V14.01,2013-04-20 17:25:00,
2013-04-20 13:30:00,33.9,20.3,30.20,WNW,298,16.0,20.0,57,0.00,,---,0.00,VWS V14.01,2013-04-20 17:30:00,
2013-04-20 13:35:00,34.3,21.1,30.20,WNW,294,12.0,20.0,58,0.00,,---,0.00,VWS V14.01,2013-04-20 17:35:00,
2013-04-20 13:40:00,34.3,20.7,30.21,NW,316,14.0,20.0,57,0.00,,---,0.00,VWS V14.01,2013-04-20 17:40:00,
2013-04-20 13:45:00,34.7,21.9,30.20,WSW,250,8.0,20.0,59,0.00,,---,0.00,VWS V14.01,2013-04-20 17:45:00,
2013-04-20 13:50:00,34.9,21.6,30.21,West,259,11.0,20.0,58,0.00,,---,0.00,VWS V14.01,2013-04-20 17:50:00,
2013-04-20 13:55:00,34.9,20.8,30.21,WNW,298,7.0,20.0,56,0.00,,---,0.00,VWS V14.01,2013-04-20 17:55:00,
2013-04-20 14:00:00,34.9,20.8,30.22,West,273,5.0,20.0,56,0.00,,---,0.00,VWS V14.01,2013-04-20 18:00:00,
2013-04-20 14:05:00,34.9,20.4,30.22,SW,233,6.0,17.0,55,0.00,,---,0.00,VWS V14.01,2013-04-20 18:05:00,
2013-04-20 14:11:00,35.0,20.9,30.22,West,280,8.0,17.0,56,0.00,,---,0.00,VWS V14.01,2013-04-20 18:11:00,
2013-04-20 14:16:00,34.9,21.2,30.22,WNW,300,10.0,17.0,57,0.00,,---,0.00,VWS V14.01,2013-04-20 18:16:00,
2013-04-20 14:21:00,35.1,23.0,30.23,WNW,297,6.0,19.0,61,0.00,,---,0.00,VWS V14.01,2013-04-20 18:21:00,
2013-04-20 14:26:00,35.1,21.0,30.23,West,262,5.0,19.0,56,0.00,,---,0.00,VWS V14.01,2013-04-20 18:26:00,
2013-04-20 14:31:00,35.0,21.7,30.23,West,267,7.0,19.0,58,0.00,,---,0.00,VWS V14.01,2013-04-20 18:31:00,
2013-04-20 14:36:00,35.0,22.9,30.24,West,268,7.0,19.0,61,0.00,,---,0.00,VWS V14.01,2013-04-20 18:36:00,
2013-04-20 14:41:00,34.9,22.4,30.24,NW,318,8.0,19.0,60,0.00,,---,0.00,VWS V14.01,2013-04-20 18:41:00,
2013-04-20 14:46:00,34.9,21.6,30.24,West,276,9.0,19.0,58,0.00,,---,0.00,VWS V14.01,2013-04-20 18:46:00,
2013-04-20 14:51:00,35.0,22.1,30.24,WNW,284,9.0,19.0,59,0.00,,---,0.00,VWS V14.01,2013-04-20 18:51:00,
2013-04-20 14:56:00,35.0,22.9,30.24,West,281,10.0,19.0,61,0.00,,---,0.00,VWS V14.01,2013-04-20 18:56:00,
2013-04-20 15:01:00,35.1,24.2,30.25,WNW,290,8.0,19.0,64,0.00,,---,0.00,VWS V14.01,2013-04-20 19:01:00,
2013-04-20 15:06:00,35.0,23.7,30.25,NW,311,9.0,16.0,63,0.00,,---,0.00,VWS V14.01,2013-04-20 19:06:00,
2013-04-20 15:11:00,35.2,24.3,30.25,WNW,297,8.0,16.0,64,0.00,,---,0.00,VWS V14.01,2013-04-20 19:11:00,
2013-04-20 15:17:00,35.6,24.6,30.25,NW,314,7.0,16.0,64,0.00,,---,0.00,VWS V14.01,2013-04-20 19:17:00,
2013-04-20 15:22:00,35.5,24.5,30.25,WNW,295,7.0,16.0,64,0.00,,---,0.00,VWS V14.01,2013-04-20 19:22:00,
2013-04-20 15:27:00,35.7,24.4,30.25,West,280,3.0,16.0,63,0.00,,---,0.00,VWS V14.01,2013-04-20 19:27:00,
2013-04-20 15:32:00,35.9,23.4,30.26,West,276,6.0,16.0,60,0.00,,---,0.00,VWS V14.01,2013-04-20 19:32:00,
2013-04-20 15:37:00,35.5,23.4,30.26,WNW,301,9.0,17.0,61,0.00,,---,0.00,VWS V14.01,2013-04-20 19:37:00,
2013-04-20 15:42:00,35.1,23.8,30.26,WNW,291,10.0,17.0,63,0.00,,---,0.00,VWS V14.01,2013-04-20 19:42:00,
2013-04-20 15:47:00,35.2,23.1,30.26,WNW,284,6.0,17.0,61,0.00,,---,0.00,VWS V14.01,2013-04-20 19:47:00,
2013-04-20 15:52:00,35.6,23.5,30.26,West,278,8.0,17.0,61,0.00,,---,0.00,VWS V14.01,2013-04-20 19:52:00,
2013-04-20 15:57:00,35.9,23.8,30.26,WNW,298,5.0,17.0,61,0.00,,---,0.00,VWS V14.01,2013-04-20 19:57:00,
2013-04-20 16:02:00,36.6,23.6,30.26,WNW,290,8.0,11.0,59,0.00,,---,0.00,VWS V14.01,2013-04-20 20:02:00,
2013-04-20 16:07:00,36.3,23.4,30.27,West,270,10.0,14.0,59,0.00,,---,0.00,VWS V14.01,2013-04-20 20:07:00,
2013-04-20 16:12:00,36.1,22.8,30.27,WNW,284,6.0,14.0,58,0.00,,---,0.00,VWS V14.01,2013-04-20 20:12:00,
2013-04-20 16:17:00,36.0,22.3,30.27,WSW,253,10.0,14.0,57,0.00,,---,0.00,VWS V14.01,2013-04-20 20:17:00,
2013-04-20 16:23:00,36.1,22.4,30.27,WNW,302,6.0,15.0,57,0.00,,---,0.00,VWS V14.01,2013-04-20 20:23:00,
2013-04-20 16:28:00,36.6,23.6,30.28,NW,326,4.0,15.0,59,0.00,,---,0.00,VWS V14.01,2013-04-20 20:28:00,
2013-04-20 16:33:00,36.7,22.5,30.28,WSW,245,16.0,16.0,56,0.00,,---,0.00,VWS V14.01,2013-04-20 20:33:00,
2013-04-20 16:38:00,36.4,21.4,30.28,WNW,287,12.0,16.0,54,0.00,,---,0.00,VWS V14.01,2013-04-20 20:38:00,
2013-04-20 16:43:00,36.5,21.5,30.28,NW,311,5.0,16.0,54,0.00,,---,0.00,VWS V14.01,2013-04-20 20:43:00,
2013-04-20 16:48:00,36.7,22.5,30.28,WSW,257,4.0,16.0,56,0.00,,---,0.00,VWS V14.01,2013-04-20 20:48:00,
2013-04-20 16:53:00,37.1,22.4,30.29,WNW,290,4.0,16.0,55,0.00,,---,0.00,VWS V14.01,2013-04-20 20:53:00,
2013-04-20 16:58:00,37.1,21.1,30.29,West,276,5.0,16.0,52,0.00,,---,0.00,VWS V14.01,2013-04-20 20:58:00,
2013-04-20 17:03:00,36.7,21.6,30.29,WNW,298,12.0,15.0,54,0.00,,---,0.00,VWS V14.01,2013-04-20 21:03:00,
2013-04-20 17:08:00,36.3,22.1,30.29,WNW,300,8.0,15.0,56,0.00,,---,0.00,VWS V14.01,2013-04-20 21:08:00,
2013-04-20 17:14:00,36.1,22.4,30.30,NW,318,6.0,15.0,57,0.00,,---,0.00,VWS V14.01,2013-04-20 21:14:00,
2013-04-20 17:19:00,36.1,23.2,30.30,West,280,4.0,15.0,59,0.00,,---,0.00,VWS V14.01,2013-04-20 21:19:00,
2013-04-20 17:24:00,36.3,23.0,30.30,WNW,298,11.0,16.0,58,0.00,,---,0.00,VWS V14.01,2013-04-20 21:24:00,
2013-04-20 17:29:00,36.3,22.5,30.30,West,281,5.0,16.0,57,0.00,,---,0.00,VWS V14.01,2013-04-20 21:29:00,
2013-04-20 17:34:00,36.4,22.6,30.31,NW,307,8.0,16.0,57,0.00,,---,0.00,VWS V14.01,2013-04-20 21:34:00,
2013-04-20 17:39:00,36.3,23.0,30.31,NW,312,8.0,16.0,58,0.00,,---,0.00,VWS V14.01,2013-04-20 21:39:00,
2013-04-20 17:44:00,36.5,21.9,30.31,WSW,253,8.0,16.0,55,0.00,,---,0.00,VWS V14.01,2013-04-20 21:44:00,
2013-04-20 17:49:00,37.4,23.1,30.31,WNW,284,5.0,16.0,56,0.00,,---,0.00,VWS V14.01,2013-04-20 21:49:00,
2013-04-20 17:54:00,38.1,23.4,30.31,WNW,302,9.0,17.0,55,0.00,,---,0.00,VWS V14.01,2013-04-20 21:54:00,
2013-04-20 17:59:00,38.4,23.2,30.31,WSW,257,4.0,17.0,54,0.00,,---,0.00,VWS V14.01,2013-04-20 21:59:00,
2013-04-20 18:04:00,37.3,21.3,30.32,West,278,4.0,12.0,52,0.00,,---,0.00,VWS V14.01,2013-04-20 22:04:00,
2013-04-20 18:09:00,36.5,22.3,30.32,WNW,301,11.0,16.0,56,0.00,,---,0.00,VWS V14.01,2013-04-20 22:09:00,
2013-04-20 18:14:00,36.1,21.5,30.32,WNW,298,9.0,16.0,55,0.00,,---,0.00,VWS V14.01,2013-04-20 22:14:00,
2013-04-20 18:19:00,36.1,21.5,30.32,NW,312,8.0,16.0,55,0.00,,---,0.00,VWS V14.01,2013-04-20 22:19:00,
2013-04-20 18:25:00,36.1,21.5,30.32,WNW,293,3.0,16.0,55,0.00,,---,0.00,VWS V14.01,2013-04-20 22:25:00,
2013-04-20 18:30:00,36.7,22.5,30.32,WSW,243,4.0,16.0,56,0.00,,---,0.00,VWS V14.01,2013-04-20 22:30:00,
2013-04-20 18:35:00,37.2,23.4,30.32,WNW,288,2.0,16.0,57,0.00,,---,0.00,VWS V14.01,2013-04-20 22:35:00,
2013-04-20 18:40:00,37.3,22.2,30.33,West,274,3.0,16.0,54,0.00,,---,0.00,VWS V14.01,2013-04-20 22:40:00,
2013-04-20 18:45:00,36.7,21.6,30.33,NW,304,6.0,16.0,54,0.00,,---,0.00,VWS V14.01,2013-04-20 22:45:00,
2013-04-20 18:50:00,36.2,21.2,30.33,NNW,335,2.0,16.0,54,0.00,,---,0.00,VWS V14.01,2013-04-20 22:50:00,
2013-04-20 18:55:00,35.9,22.2,30.34,West,280,11.0,16.0,57,0.00,,---,0.00,VWS V14.01,2013-04-20 22:55:00,
2013-04-20 19:00:00,35.9,22.2,30.34,NW,311,8.0,16.0,57,0.00,,---,0.00,VWS V14.01,2013-04-20 23:00:00,
2013-04-20 19:05:00,36.4,23.0,30.34,WNW,298,4.0,8.0,58,0.00,,---,0.00,VWS V14.01,2013-04-20 23:05:00,
2013-04-20 19:10:00,36.6,21.5,30.34,West,271,10.0,14.0,54,0.00,,---,0.00,VWS V14.01,2013-04-20 23:10:00,
2013-04-20 19:15:00,36.5,21.9,30.34,NW,319,8.0,14.0,55,0.00,,---,0.00,VWS V14.01,2013-04-20 23:15:00,
2013-04-20 19:20:00,36.4,21.4,30.34,NW,307,6.0,14.0,54,0.00,,---,0.00,VWS V14.01,2013-04-20 23:20:00,
2013-04-20 19:25:00,36.4,21.8,30.35,West,273,5.0,14.0,55,0.00,,---,0.00,VWS V14.01,2013-04-20 23:25:00,
2013-04-20 19:31:00,36.5,21.0,30.35,NW,324,7.0,14.0,53,0.00,,---,0.00,VWS V14.01,2013-04-20 23:31:00,
2013-04-20 19:36:00,36.3,21.3,30.35,NW,319,3.0,14.0,54,0.00,,---,0.00,VWS V14.01,2013-04-20 23:36:00,
2013-04-20 19:41:00,36.3,21.7,30.35,West,259,3.0,14.0,55,0.00,,---,0.00,VWS V14.01,2013-04-20 23:41:00,
2013-04-20 19:46:00,36.4,21.8,30.35,West,266,3.0,14.0,55,0.00,,---,0.00,VWS V14.01,2013-04-20 23:46:00,
2013-04-20 19:51:00,36.1,21.1,30.35,NW,304,2.0,14.0,54,0.00,,---,0.00,VWS V14.01,2013-04-20 23:51:00,
2013-04-20 19:56:00,35.9,22.2,30.36,WNW,288,3.0,14.0,57,0.00,,---,0.00,VWS V14.01,2013-04-20 23:56:00,
2013-04-20 20:01:00,35.6,21.9,30.36,WNW,300,4.0,14.0,57,0.00,,---,0.00,VWS V14.01,2013-04-21 00:01:00,
2013-04-20 20:06:00,35.4,21.7,30.36,WNW,301,4.0,5.0,57,0.00,,---,0.00,VWS V14.01,2013-04-21 00:06:00,
2013-04-20 20:11:00,35.1,20.1,30.37,WNW,302,6.0,10.0,54,0.00,,---,0.00,VWS V14.01,2013-04-21 00:11:00,
2013-04-20 20:16:00,34.9,20.0,30.37,WNW,286,3.0,10.0,54,0.00,,---,0.00,VWS V14.01,2013-04-21 00:16:00,
2013-04-20 20:21:00,34.5,20.4,30.37,WNW,296,1.0,10.0,56,0.00,,---,0.00,VWS V14.01,2013-04-21 00:21:00,
2013-04-20 20:26:00,34.3,20.2,30.37,West,270,5.0,10.0,56,0.00,,---,0.00,VWS V14.01,2013-04-21 00:26:00,
2013-04-20 20:32:00,34.3,20.2,30.38,WNW,302,2.0,10.0,56,0.00,,---,0.00,VWS V14.01,2013-04-21 00:32:00,
2013-04-20 20:37:00,34.1,20.5,30.38,NNW,338,1.0,10.0,57,0.00,,---,0.00,VWS V14.01,2013-04-21 00:37:00,
2013-04-20 20:42:00,34.0,20.4,30.38,North,354,4.0,10.0,57,0.00,,---,0.00,VWS V14.01,2013-04-21 00:42:00,
2013-04-20 20:47:00,33.8,21.0,30.39,NNW,336,3.0,10.0,59,0.00,,---,0.00,VWS V14.01,2013-04-21 00:47:00,
2013-04-20 20:52:00,33.7,21.3,30.39,NNW,331,3.0,10.0,60,0.00,,---,0.00,VWS V14.01,2013-04-21 00:52:00,
2013-04-20 20:57:00,33.7,21.3,30.39,NNW,334,0.0,10.0,60,0.00,,---,0.00,VWS V14.01,2013-04-21 00:57:00,
2013-04-20 21:02:00,33.5,21.5,30.39,NW,312,1.0,2.0,61,0.00,,---,0.00,VWS V14.01,2013-04-21 01:02:00,
2013-04-20 21:07:00,33.6,22.0,30.40,NW,307,3.0,3.0,62,0.00,,---,0.00,VWS V14.01,2013-04-21 01:07:00,
2013-04-20 21:12:00,33.6,22.0,30.40,WNW,297,1.0,3.0,62,0.00,,---,0.00,VWS V14.01,2013-04-21 01:12:00,
2013-04-20 21:50:00,32.3,22.2,30.42,NW,322,1.0,3.0,66,0.00,,---,0.00,VWS V14.01,2013-04-21 01:50:00,
2013-04-20 21:56:00,32.1,22.0,30.43,NW,322,0.0,3.0,66,0.00,,---,0.00,VWS V14.01,2013-04-21 01:56:00,
2013-04-20 22:01:00,31.8,22.1,30.43,NW,319,0.0,3.0,67,0.00,,---,0.00,VWS V14.01,2013-04-21 02:01:00,
2013-04-20 22:06:00,31.6,22.3,30.43,WSW,238,0.0,1.0,68,0.00,,---,0.00,VWS V14.01,2013-04-21 02:06:00,
2013-04-20 22:11:00,31.5,22.2,30.43,WSW,238,0.0,1.0,68,0.00,,---,0.00,VWS V14.01,2013-04-21 02:11:00,
2013-04-20 22:16:00,31.4,22.4,30.43,WSW,238,0.0,1.0,69,0.00,,---,0.00,VWS V14.01,2013-04-21 02:16:00,
2013-04-20 22:21:00,31.2,22.2,30.43,WSW,238,0.0,1.0,69,0.00,,---,0.00,VWS V14.01,2013-04-21 02:21:00,
2013-04-20 22:26:00,30.8,21.9,30.44,WSW,238,0.0,1.0,69,0.00,,---,0.00,VWS V14.01,2013-04-21 02:26:00,
2013-04-20 22:31:00,30.1,21.9,30.44,WSW,238,0.0,1.0,71,0.00,,---,0.00,VWS V14.01,2013-04-21 02:31:00,
2013-04-20 22:36:00,29.4,21.8,30.44,WSW,238,0.0,1.0,73,0.00,,---,0.00,VWS V14.01,2013-04-21 02:36:00,
2013-04-20 22:41:00,29.0,22.1,30.44,WSW,238,0.0,1.0,75,0.00,,---,0.00,VWS V14.01,2013-04-21 02:41:00,
2013-04-20 22:46:00,28.7,22.1,30.44,WSW,238,0.0,1.0,76,0.00,,---,0.00,VWS V14.01,2013-04-21 02:46:00,
2013-04-20 22:51:00,28.7,22.4,30.45,East,98,0.0,1.0,77,0.00,,---,0.00,VWS V14.01,2013-04-21 02:51:00,
2013-04-20 22:56:00,28.9,22.6,30.45,East,97,0.0,1.0,77,0.00,,---,0.00,VWS V14.01,2013-04-21 02:56:00,
2013-04-20 23:01:00,28.6,22.0,30.45,East,97,0.0,1.0,76,0.00,,---,0.00,VWS V14.01,2013-04-21 03:01:00,
2013-04-20 23:07:00,28.0,21.7,30.45,East,97,0.0,0.0,77,0.00,,---,0.00,VWS V14.01,2013-04-21 03:07:00,
2013-04-20 23:12:00,27.3,21.1,30.45,East,97,0.0,0.0,77,0.00,,---,0.00,VWS V14.01,2013-04-21 03:12:00,
2013-04-20 23:17:00,27.1,21.8,30.46,East,97,0.0,0.0,80,0.00,,---,0.00,VWS V14.01,2013-04-21 03:17:00,
2013-04-20 23:22:00,27.2,22.1,30.46,East,97,0.0,0.0,81,0.00,,---,0.00,VWS V14.01,2013-04-21 03:22:00,
2013-04-20 23:27:00,27.1,22.1,30.46,East,98,0.0,0.0,81,0.00,,---,0.00,VWS V14.01,2013-04-21 03:27:00,
2013-04-20 23:32:00,26.7,21.7,30.46,East,97,0.0,0.0,81,0.00,,---,0.00,VWS V14.01,2013-04-21 03:32:00,
2013-04-20 23:37:00,26.6,22.1,30.46,East,97,0.0,0.0,83,0.00,,---,0.00,VWS V14.01,2013-04-21 03:37:00,
2013-04-20 23:42:00,26.2,21.5,30.46,East,97,0.0,0.0,82,0.00,,---,0.00,VWS V14.01,2013-04-21 03:42:00,
2013-04-20 23:47:00,25.7,21.3,30.46,East,97,0.0,0.0,83,0.00,,---,0.00,VWS V14.01,2013-04-21 03:47:00,
2013-04-20 23:52:00,25.8,21.9,30.47,East,97,0.0,0.0,85,0.00,,---,0.00,VWS V14.01,2013-04-21 03:52:00,
2013-04-20 23:57:00,25.7,21.8,30.47,East,98,0.0,0.0,85,0.00,,---,0.00,VWS V14.01,2013-04-21 03:57:00,